RH
35 34 30 34 39 39 36 38 41 41 43 49 53 50 46 43 41 41 39 34 35 35 35 35 34 33 33 32 31 29 28 27 25 25 26 26 29 33 34 35 37 39 35
39 39 33 35 39 41 41 41 40 44 45 49 49 48 47 44 41 38 35 35 36 36 37 37 37 36 36 35 35 33 30 30 29 27 27 29 29 35 37 37 34 35 37
39 43 35 38 41 45 41 45 44 47 47 49 50 50 49 45 42 36 36 36 36 36 38 40 40 40 40 40 39 37 33 31 30 28 28 39 39 36 37 38 36 35 36
39 43 46 41 44 48 47 48 48 51 53 55 56 55 51 44 40 40 37 35 36 37 40 41 42 42 41 41 42 40 34 29 29 30 31 33 39 36 40 43 39 39 39
44 48 52 49 47 50 53 54 56 58 56 56 55 54 51 49 44 39 38 37 38 40 43 44 45 42 39 39 40 39 37 30 26 29 36 37 46 38 44 38 44 46 44
44 48 51 49 48 52 56 60 61 62 63 64 60 57 54 52 44 40 40 42 44 44 45 46 44 42 37 38 42 40 40 34 31 37 40 31 37 44 38 38 38 36 38
47 48 47 48 46 48 51 55 55 55 57 60 57 56 63 50 47 45 45 46 48 49 48 45 42 41 38 41 40 45 46 41 42 38 32 30 32 33 35 36 37 37 39
46 46 46 45 43 44 47 50 53 53 47 64 58 59 55 52 52 51 51 52 55 53 51 45 41 40 42 40 43 48 48 46 43 37 34 29 29 31 33 34 34 34 35
45 45 46 45 48 49 52 53 53 55 56 64 52 64 53 55 57 57 59 62 62 57 52 45 41 44 44 47 56 57 60 47 41 35 37 32 28 28 30 32 34 34 31
45 45 48 46 52 60 62 62 63 61 61 57 60 62 60 57 62 65 62 66 64 62 53 43 46 52 58 59 58 59 64 46 42 39 34 32 25 24 25 27 28 27 26
41 45 47 50 56 58 68 68 69 67 67 67 64 64 66 71 69 72 70 72 67 60 50 44 52 67 65 68 67 71 50 51 49 47 39 34 33 31 26 23 23 23 25
37 41 47 47 50 59 58 66 76 77 77 74 73 71 69 72 76 72 69 67 65 57 49 53 67 70 67 64 64 55 52 52 50 41 40 38 35 32 30 25 23 21 21
36 38 44 50 50 53 60 62 69 78 76 76 70 72 71 72 72 71 71 67 63 57 55 63 65 69 71 63 51 46 54 49 44 41 39 36 34 32 32 29 25 23 22
36 40 44 44 51 51 57 63 66 70 71 72 74 74 74 75 75 74 70 70 66 65 66 65 64 62 60 51 55 49 51 48 46 41 38 33 30 32 33 30 29 27 25
36 40 46 48 45 53 56 59 65 69 73 72 71 76 78 79 76 76 78 76 74 74 73 65 57 54 51 53 49 45 47 48 44 37 33 34 31 29 27 26 29 32 32
37 41 45 49 50 48 57 60 58 65 69 68 72 75 77 79 78 81 85 85 82 78 71 58 52 48 53 50 49 48 47 43 39 35 31 31 30 29 27 28 31 33 34
36 40 44 49 50 51 51 59 59 61 65 68 76 75 76 75 78 79 80 78 79 69 61 55 52 50 53 51 50 48 47 41 36 33 34 33 32 30 29 29 32 35 34
37 41 44 48 51 53 53 54 58 54 62 63 69 70 73 75 70 69 68 65 62 56 57 53 52 57 55 58 52 48 45 40 37 35 35 36 36 33 32 32 32 31 33
35 41 40 46 52 54 58 56 59 59 61 64 66 67 71 69 66 63 66 63 55 55 55 56 58 60 61 56 54 60 54 44 40 39 39 38 37 37 37 36 33 32 30
36 37 39 44 53 54 58 61 60 58 59 63 65 65 68 66 62 62 59 53 52 51 52 58 62 59 58 55 58 50 50 47 46 46 45 44 44 39 39 38 36 31 28
41 36 35 39 45 51 55 57 58 59 59 61 61 60 60 58 56 53 50 50 51 49 51 55 60 68 64 61 56 55 55 60 60 60 54 49 42 39 36 36 36 31 23
31 35 36 38 42 48 52 55 59 60 60 59 57 55 60 63 60 54 48 50 50 52 50 63 64 56 52 51 56 58 60 62 63 60 54 46 42 41 35 31 25 22 19
26 28 28 33 41 48 55 60 63 62 59 60 58 60 64 67 63 58 53 53 55 53 60 64 58 54 56 60 65 68 66 65 62 59 50 45 43 37 32 25 20 19 18
28 29 28 29 31 40 51 58 60 59 59 58 60 63 66 68 67 63 60 57 52 59 52 54 56 56 59 61 64 66 63 60 55 50 47 43 36 31 28 27 25 23 16
29 31 33 33 32 36 44 53 60 67 69 67 67 67 69 70 68 64 63 58 62 53 51 54 52 56 62 69 64 59 56 48 44 40 38 35 32 29 26 25 25 24 23
32 34 36 36 35 37 40 48 56 68 73 73 74 76 75 73 71 66 64 61 53 51 50 52 53 58 62 65 65 58 50 45 42 38 36 30 30 29 26 23 24 24 24